Temperature
9 8 7 8 8 9 9 9 9 10 10 10 9 10 11 12 12 12 12 12 12 12 11 11 10 10 10 10 10 10 10 10 10 10 10 10 10 10 10 10 10 10 10 10
8 7 8 9 9 9 9 9 9 9 10 9 9 9 10 11 11 11 11 11 12 11 11 10 10 10 10 9 9 9 9 10 10 10 10 10 10 10 10 10 10 10 10 10
7 8 9 8 8 8 8 8 8 8 8 9 8 8 10 11 11 11 11 11 11 11 10 10 10 9 9 9 9 9 9 9 9 9 9 9 9 9 9 9 9 10 9 9
8 8 8 8 7 7 7 8 8 7 6 6 7 6 9 10 10 10 10 10 10 10 10 9 9 9 8 8 8 8 8 9 9 9 9 9 9 9 9 9 9 9 9 9
7 8 7 7 7 7 7 8 7 7 6 6 6 5 7 9 9 9 9 10 10 9 9 8 8 8 8 8 8 8 8 8 8 8 8 8 8 8 8 8 9 9 9 9
7 8 7 7 7 8 7 7 7 6 5 5 6 6 7 8 9 9 9 9 9 8 8 7 7 7 7 7 7 7 7 7 8 8 8 8 8 8 8 8 8 8 8 8
6 7 7 7 6 7 7 5 5 5 5 6 7 7 7 8 8 8 7 7 7 7 7 7 6 6 6 6 6 6 7 7 7 7 7 7 7 7 7 8 8 8 8 8
5 5 6 6 6 5 6 6 5 5 6 6 6 6 7 8 8 8 7 7 6 6 6 5 5 5 5 5 5 6 6 6 6 6 6 7 7 7 7 7 7 7 7 8
5 5 6 7 7 6 6 5 6 5 5 5 6 7 8 7 7 7 6 6 5 5 5 5 4 4 4 4 5 5 5 6 6 6 6 6 6 6 6 6 7 7 7 7
5 4 5 6 6 6 6 5 4 4 4 5 6 7 7 6 6 6 5 5 5 5 4 4 4 4 4 4 4 4 5 5 5 5 5 5 6 6 6 6 6 6 6 7
4 3 4 5 4 4 4 4 4 4 4 4 5 6 7 6 5 5 5 5 4 4 4 3 3 3 3 4 4 4 4 4 4 4 4 5 5 5 5 5 6 6 6 6
3 3 3 4 5 5 5 5 4 3 3 4 4 4 6 5 5 5 4 4 4 4 3 3 3 3 3 3 3 3 3 4 4 4 4 4 4 5 5 5 5 5 5 5
3 2 2 3 3 3 3 4 4 3 3 3 3 4 6 5 5 4 4 4 3 3 3 2 2 2 2 2 2 2 3 3 3 3 3 3 4 4 4 4 5 5 5 5
3 2 2 3 3 3 2 3 3 2 2 2 3 4 5 4 4 3 3 3 3 2 2 2 1 1 1 1 1 2 2 2 2 3 3 3 3 3 4 4 4 4 4 5
2 1 1 2 3 3 2 2 2 2 2 2 3 3 3 3 3 3 2 2 2 1 1 1 1 1 1 1 1 1 1 1 2 2 2 2 2 3 3 3 3 4 4 4
0 0 1 1 2 2 2 2 2 2 2 2 2 2 2 2 2 2 2 1 1 1 1 0 0 0 0 0 0 0 1 1 1 1 1 1 2 2 2 3 3 3 3 3
-0 -1 0 1 2 2 1 1 1 1 1 2 1 1 1 1 1 1 1 1 0 0 0 -0 -0 -0 -0 -0 -0 -0 0 0 0 0 0 1 1 1 1 2 2 2 2 3
-1 -1 -0 0 1 1 2 2 2 1 1 1 1 1 1 0 0 0 0 0 -0 -0 -1 -1 -1 -1 -1 -1 -1 -1 -0 -0 -0 -0 -0 0 0 1 1 1 1 1 1 2
-1 -1 -0 0 0 1 2 1 1 0 0 0 0 0 0 0 -0 -0 -0 -0 -1 -1 -1 -1 -1 -1 -1 -1 -1 -1 -1 -1 -1 -1 -1 -0 -0 -0 0 0 0 0 1 1
-2 -2 -1 -0 0 1 1 1 1 0 -0 0 -0 -1 -1 -1 -2 -1 -1 -1 -1 -1 -1 -1 -1 -1 -1 -1 -1 -1 -1 -1 -1 -1 -1 -1 -1 -1 -1 -1 -0 -0 -0 0
-2 -2 -1 -1 -0 0 0 0 0 -0 -0 -0 -0 -1 -1 -2 -2 -2 -2 -2 -2 -2 -2 -2 -2 -2 -2 -2 -2 -2 -2 -2 -2 -2 -2 -1 -1 -1 -1 -1 -1 -1 -1 -0
-1 -1 -1 -1 -1 -0 -0 -1 -1 -1 -1 -1 -1 -1 -2 -2 -2 -3 -3 -3 -2 -2 -2 -2 -2 -2 -2 -2 -2 -2 -2 -2 -2 -2 -2 -2 -2 -2 -2 -1 -1 -1 -1 -1
-1 -1 -1 -1 -1 -0 -0 -1 -1 -1 -2 -2 -2 -2 -3 -3 -3 -3 -3 -3 -3 -3 -3 -3 -3 -3 -3 -3 -3 -3 -3 -3 -3 -3 -3 -2 -2 -2 -2 -2 -2 -2 -2 -1
-1 -1 -1 -2 -1 -1 -1 -1 -1 -2 -2 -3 -3 -3 -3 -3 -3 -4 -4 -3 -3 -3 -3 -3 -3 -3 -3 -3 -3 -3 -3 -3 -3 -3 -3 -3 -2 -2 -2 -2 -2 -2 -2 -2
-1 -3 -2 -3 -2 -2 -1 -2 -2 -2 -3 -3 -3 -3 -4 -4 -4 -4 -4 -4 -4 -4 -4 -3 -3 -3 -3 -3 -3 -3 -3 -3 -3 -3 -3 -3 -3 -3 -3 -3 -3 -2 -2 -2
-2 -3 -3 -2 -2 -3 -2 -2 -3 -3 -3 -4 -4 -4 -4 -4 -4 -4 -4 -4 -4 -4 -4 -4 -4 -3 -4 -3 -3 -3 -3 -3 -3 -3 -3 -3 -3 -3 -3 -3 -3 -3 -3 -2
Wind_Speed
3 3 5 5 6 7 6 8 9 7 4 7 11 14 12 9 8 9 7 7 7 6 4 4 3 3 3 3 4 5 5 5 4 4 5 5 5 5 5 5 8 9 9 9
3 6 5 4 6 7 9 10 10 6 4 7 10 14 13 10 10 9 8 8 6 5 3 3 3 3 3 4 4 5 5 6 5 5 5 5 5 5 5 5 6 8 9 9
5 2 2 5 6 7 8 8 8 7 7 7 8 10 8 6 7 7 7 6 4 4 3 3 3 3 2 3 4 4 5 5 5 5 4 4 4 3 4 5 5 6 8 8
4 3 4 5 6 5 7 4 5 6 5 4 3 6 7 6 7 6 5 4 4 3 2 1 2 2 3 4 4 4 5 5 6 5 5 6 6 6 5 5 5 5 7 7
3 2 3 5 5 5 4 4 5 6 6 6 6 6 8 5 6 5 4 3 1 1 2 2 2 2 3 3 3 4 4 5 5 6 6 6 6 5 4 5 6 6 6 7
5 2 3 4 3 3 3 4 5 4 3 6 8 7 6 3 4 3 1 2 2 2 2 2 2 2 2 3 2 3 4 4 5 5 5 6 7 6 6 6 7 6 5 5
4 4 2 2 3 3 2 1 1 2 4 7 4 5 7 2 0 2 2 2 3 4 3 3 3 3 3 3 3 3 4 4 4 4 4 6 6 7 8 7 7 6 5 5
3 4 4 3 3 2 4 3 2 3 4 4 2 6 4 1 2 4 4 3 3 4 4 5 4 4 3 3 3 3 3 4 3 3 4 5 5 5 5 5 5 6 6 6
2 3 1 2 3 3 3 4 2 3 4 5 6 5 2 1 3 3 3 4 3 4 5 5 5 4 4 4 3 3 3 2 2 2 3 3 3 4 4 4 4 5 5 5
2 4 3 2 2 4 3 2 1 3 3 5 5 5 3 0 1 2 2 3 3 4 4 4 4 4 4 3 3 1 1 1 1 2 2 2 2 2 3 4 4 4 5 5
2 2 2 2 5 5 4 3 3 3 4 3 4 3 2 2 1 1 2 2 2 3 3 4 4 4 3 3 3 2 1 1 1 2 2 2 2 1 2 3 4 4 4 5
1 2 4 4 2 1 3 4 4 3 4 4 4 5 2 4 4 3 4 4 3 3 3 4 4 4 4 4 3 3 2 1 1 1 2 2 2 1 1 2 3 3 4 4
1 1 3 2 1 1 2 4 4 3 3 4 4 5 2 4 5 5 4 5 5 4 4 4 5 4 4 4 4 4 3 3 2 2 2 2 2 1 2 2 2 3 3 4
1 3 5 5 3 2 4 5 5 5 5 6 7 8 6 5 5 5 4 4 5 5 4 5 5 4 4 4 4 4 4 4 3 3 2 2 2 2 2 2 2 2 2 3
0 4 5 8 8 6 8 8 8 9 9 8 8 8 8 5 5 5 5 5 6 6 5 5 5 4 4 4 4 4 4 4 4 3 3 3 2 2 2 2 2 2 2 3
0 3 3 5 6 6 8 9 9 10 10 10 11 11 5 5 5 6 6 6 5 5 5 5 6 6 5 5 5 5 4 4 4 3 3 3 3 2 2 2 2 2 2 2
3 2 2 4 3 4 6 6 6 4 4 5 8 7 5 6 6 6 6 6 5 5 6 6 6 6 6 5 5 5 4 4 3 3 3 3 3 3 3 3 2 3 2 2
3 2 2 3 3 4 4 1 1 3 4 3 4 5 5 5 5 5 4 4 5 6 6 5 5 6 6 6 5 5 5 4 4 3 3 3 3 3 3 3 3 3 3 2
3 3 2 2 3 6 2 0 1 2 4 2 4 5 6 6 5 4 3 5 6 6 6 5 5 5 5 5 4 4 4 4 4 4 4 3 3 3 3 3 3 3 3 2
1 2 3 3 3 4 2 1 2 0 3 2 3 5 5 5 4 4 6 8 7 7 6 5 5 5 5 5 4 4 4 4 5 5 4 4 3 3 3 4 4 3 3 2
3 3 5 5 4 4 1 2 2 0 3 4 4 4 3 3 3 5 7 7 6 7 6 6 5 5 5 5 4 4 4 4 4 4 4 4 3 3 3 4 4 3 3 1
4 4 4 4 4 5 1 2 1 2 3 4 5 4 4 4 5 6 6 6 7 7 7 6 5 5 5 5 4 4 5 5 5 4 4 4 4 3 3 3 3 3 3 1
4 4 3 4 4 0 1 1 0 1 3 4 4 4 4 5 5 6 6 6 6 6 6 5 4 4 4 4 4 4 5 5 5 4 4 4 4 3 3 2 2 2 2 1
2 0 1 3 3 2 1 0 2 2 2 4 4 4 5 5 5 6 6 5 5 5 6 5 5 4 4 5 5 4 5 5 4 5 4 4 3 3 3 2 2 2 1 1
2 2 2 4 3 3 1 2 2 3 3 3 4 4 4 5 5 5 5 5 5 5 5 5 4 4 5 5 5 5 5 5 5 5 4 4 3 3 2 2 2 2 2 2
3 3 3 4 2 2 4 2 2 2 3 4 4 5 4 4 5 5 4 5 5 5 5 5 5 5 5 5 6 6 5 4 5 5 4 3 3 2 2 2 3 3 3 4
Wind_Direction
209 218 219 226 235 263 275 275 274 277 288 276 260 264 263 248 243 250 251 247 240 240 226 207 211 209 208 201 199 198 196 205 200 199 200 200 207 203 193 193 188 182 179 179
223 237 238 252 257 259 262 268 275 290 305 285 275 271 264 246 243 241 240 243 240 232 225 214 206 203 210 212 207 207 209 207 209 208 207 205 205 206 196 193 190 185 183 184
231 242 231 243 253 263 259 257 272 290 308 276 283 283 248 228 227 237 238 237 239 239 233 234 220 213 219 229 222 221 221 217 212 213 210 208 200 200 199 196 196 192 184 185
255 254 258 254 255 257 268 279 285 285 287 274 268 285 267 227 228 228 231 223 229 234 240 265 277 254 243 241 233 231 231 223 214 206 204 207 209 209 203 195 192 189 185 184
264 253 260 258 260 254 266 308 288 274 268 276 236 246 271 226 228 234 224 197 180 54 30 354 330 294 273 272 250 242 244 234 223 210 207 213 222 221 197 188 187 192 194 190
261 268 264 273 284 265 277 286 273 252 250 258 225 217 272 234 230 218 188 77 47 29 21 354 338 327 300 292 271 258 255 248 232 219 212 214 219 213 201 195 193 195 199 197
256 218 213 255 261 243 251 280 303 253 228 246 212 220 250 250 28 111 103 62 34 21 10 358 344 335 313 303 278 261 252 257 246 230 228 224 221 211 207 203 199 197 199 201
277 248 192 202 230 243 236 234 230 251 257 276 259 238 251 139 68 70 85 79 48 23 14 2 348 336 323 310 291 278 259 256 241 240 249 245 226 209 207 213 207 205 204 201
281 272 180 222 250 245 235 229 266 285 285 275 247 236 214 47 44 58 58 46 22 12 10 353 340 338 330 316 295 280 263 260 257 260 280 247 220 207 205 209 213 212 203 201
311 282 252 206 223 243 262 269 209 226 257 267 263 248 251 11 6 32 28 16 5 5 358 350 340 336 326 314 302 286 250 269 299 291 277 276 236 215 208 205 211 211 208 203
299 259 254 210 209 208 195 208 225 241 257 263 281 274 9 34 72 62 2 12 19 356 350 348 343 345 342 340 348 347 8 7 328 295 291 283 277 262 224 210 210 207 210 206
270 263 255 234 210 259 225 219 204 221 250 235 263 274 16 56 42 36 12 10 2 360 1 354 351 354 353 352 359 348 347 352 319 294 295 288 280 282 259 237 225 210 208 210
215 225 282 260 193 249 254 241 233 247 268 242 242 260 346 34 20 21 10 359 354 357 357 356 355 354 351 355 352 349 352 351 342 335 323 309 300 295 289 286 259 221 208 210
264 242 228 241 273 278 255 245 233 222 233 251 244 268 299 345 353 351 352 346 347 355 352 348 346 344 347 351 354 353 351 349 344 346 339 318 310 311 307 313 304 263 226 214
233 251 255 267 278 278 269 257 235 229 235 243 264 280 293 324 334 338 341 340 346 349 353 346 339 339 344 349 350 350 345 343 343 341 334 321 317 321 328 317 308 305 274 251
260 266 289 273 257 257 271 264 250 241 242 253 275 284 304 331 337 329 329 330 330 330 338 341 341 339 341 345 342 342 337 339 340 332 327 326 332 333 328 310 311 301 285 269
204 222 260 269 291 310 273 246 225 232 248 241 255 275 328 335 328 321 321 324 331 333 332 333 335 340 346 343 339 336 331 333 336 328 326 334 336 332 326 315 310 301 290 292
189 208 239 283 328 253 245 49 161 224 257 249 273 312 334 328 317 315 320 329 336 331 329 333 335 335 335 334 337 340 342 339 335 333 333 335 330 323 325 323 315 309 314 300
200 198 237 251 260 267 255 81 16 254 274 277 281 306 323 333 328 327 1 355 338 329 327 329 325 324 330 332 337 345 344 338 336 335 333 333 329 321 323 319 315 318 320 313
174 187 225 241 255 256 291 2 344 249 267 10 340 316 325 340 325 314 346 346 340 338 338 338 336 342 342 339 342 345 338 338 334 330 326 330 330 325 322 324 321 320 320 318
178 200 218 234 247 267 317 327 24 121 283 335 347 336 327 309 288 307 325 330 336 336 338 339 343 345 337 337 341 336 333 328 322 323 323 325 325 322 321 325 325 324 321 318
191 200 205 208 226 254 28 68 129 265 325 339 340 343 335 320 318 322 324 328 335 339 340 341 344 342 342 345 342 338 334 327 327 325 322 319 320 319 319 322 327 330 333 338
205 208 209 206 219 280 103 144 360 3 326 324 331 333 333 321 316 318 322 325 331 334 335 336 339 340 345 350 349 339 327 329 326 323 316 310 314 315 314 315 318 321 328 329
230 235 238 264 259 269 270 310 343 339 321 323 327 324 322 309 306 312 317 322 328 330 332 334 340 341 340 343 343 332 325 328 327 322 316 312 310 309 312 307 301 306 308 299
242 185 234 255 277 311 288 293 302 312 324 325 324 321 311 307 304 306 314 318 323 328 329 333 335 332 327 329 330 329 327 327 322 318 317 313 306 298 300 300 293 288 278 267
211 203 218 245 252 257 286 312 326 321 317 320 321 321 319 309 303 310 312 315 320 323 325 328 328 328 327 330 328 327 327 325 320 320 322 316 312 306 304 304 311 306 286 303
Height
1472 1474 1473 1472 1472 1471 1470 1469 1467 1463 1463 1464 1462 1458 1454 1453 1454 1453 1454 1454 1455 1456 1458 1459 1460 1461 1461 1462 1463 1464 1465 1466 1468 1470 1471 1472 1474 1476 1479 1481 1484 1486 1488 1491
1472 1472 1470 1470 1470 1470 1469 1470 1467 1464 1463 1463 1460 1455 1449 1447 1448 1448 1449 1450 1451 1452 1454 1455 1456 1457 1457 1458 1459 1459 1460 1462 1463 1465 1467 1468 1471 1472 1474 1477 1479 1482 1484 1486
1470 1468 1468 1469 1469 1470 1468 1468 1467 1467 1466 1462 1462 1454 1445 1441 1442 1444 1445 1446 1447 1449 1450 1452 1453 1453 1453 1454 1455 1455 1456 1457 1459 1461 1463 1465 1467 1468 1470 1472 1474 1477 1479 1482
1467 1466 1468 1468 1468 1469 1469 1465 1465 1467 1470 1469 1465 1467 1445 1440 1440 1440 1441 1442 1444 1446 1447 1448 1449 1450 1450 1450 1451 1451 1452 1453 1454 1456 1457 1459 1460 1461 1463 1466 1469 1472 1475 1477
1467 1466 1467 1467 1467 1467 1467 1465 1466 1467 1469 1470 1465 1469 1450 1439 1439 1438 1438 1439 1441 1443 1444 1445 1446 1446 1446 1446 1446 1447 1447 1448 1450 1452 1453 1455 1456 1457 1459 1462 1464 1467 1470 1473
1467 1466 1467 1466 1466 1466 1466 1466 1465 1466 1469 1472 1460 1463 1451 1440 1436 1436 1437 1438 1440 1441 1442 1443 1443 1443 1443 1442 1442 1442 1443 1444 1445 1447 1449 1450 1451 1453 1455 1456 1459 1461 1464 1467
1465 1465 1465 1466 1466 1466 1467 1472 1474 1472 1471 1463 1450 1454 1447 1436 1434 1435 1437 1439 1439 1440 1440 1440 1440 1440 1439 1439 1438 1438 1439 1439 1441 1442 1444 1446 1447 1449 1450 1451 1454 1456 1458 1460
1469 1467 1464 1465 1466 1468 1468 1469 1475 1475 1466 1457 1453 1453 1441 1435 1434 1434 1436 1438 1438 1438 1439 1439 1438 1437 1436 1436 1435 1435 1435 1436 1437 1438 1440 1441 1443 1444 1446 1447 1449 1451 1452 1455
1470 1467 1463 1463 1464 1466 1467 1468 1467 1471 1468 1466 1453 1442 1437 1434 1434 1435 1436 1437 1438 1438 1437 1437 1436 1434 1434 1433 1433 1432 1432 1433 1434 1434 1435 1436 1438 1439 1441 1443 1445 1446 1448 1450
1470 1473 1465 1463 1464 1465 1465 1466 1470 1473 1470 1461 1446 1440 1439 1438 1437 1436 1437 1438 1438 1438 1437 1435 1434 1432 1431 1430 1430 1430 1430 1430 1430 1431 1431 1432 1433 1435 1437 1438 1440 1441 1443 1445
1471 1474 1468 1465 1466 1465 1467 1469 1469 1468 1466 1464 1455 1446 1437 1437 1436 1437 1437 1438 1437 1437 1436 1434 1433 1431 1429 1428 1428 1427 1428 1428 1428 1428 1428 1429 1430 1431 1433 1434 1435 1437 1439 1440
1471 1472 1471 1464 1461 1462 1462 1463 1466 1471 1467 1463 1462 1453 1437 1436 1436 1437 1437 1437 1437 1436 1435 1434 1432 1430 1428 1427 1426 1426 1426 1425 1425 1425 1425 1426 1426 1427 1428 1429 1431 1432 1434 1435
1471 1473 1472 1465 1467 1466 1465 1463 1464 1467 1467 1464 1461 1451 1437 1437 1437 1438 1438 1437 1437 1436 1434 1433 1431 1429 1428 1427 1426 1425 1424 1423 1423 1423 1422 1423 1423 1424 1424 1425 1427 1428 1429 1431
1469 1471 1472 1468 1462 1464 1465 1463 1463 1466 1467 1462 1454 1446 1440 1439 1439 1439 1439 1438 1437 1435 1434 1432 1431 1429 1427 1426 1425 1424 1422 1422 1421 1421 1421 1420 1421 1421 1421 1422 1423 1424 1426 1427
1470 1471 1468 1464 1461 1461 1461 1460 1460 1462 1459 1459 1450 1446 1443 1442 1441 1440 1439 1438 1436 1435 1433 1432 1430 1429 1427 1425 1424 1422 1421 1420 1420 1419 1419 1418 1419 1418 1419 1419 1420 1420 1421 1422
1471 1470 1468 1465 1458 1458 1459 1455 1455 1454 1453 1452 1450 1447 1443 1443 1441 1440 1439 1437 1436 1434 1432 1431 1429 1428 1425 1424 1422 1421 1420 1419 1418 1417 1417 1417 1416 1416 1416 1416 1416 1417 1418 1418
1471 1471 1470 1463 1458 1457 1457 1451 1451 1451 1449 1449 1449 1446 1443 1442 1441 1440 1438 1437 1435 1433 1432 1430 1428 1425 1424 1422 1421 1419 1418 1417 1416 1416 1415 1414 1414 1414 1413 1413 1414 1414 1414 1413
1470 1470 1469 1465 1463 1463 1450 1445 1445 1447 1447 1447 1446 1444 1443 1442 1440 1438 1437 1436 1434 1433 1431 1428 1426 1424 1422 1421 1419 1418 1416 1415 1414 1413 1412 1412 1412 1411 1411 1411 1411 1411 1410 1410
1467 1469 1467 1465 1463 1453 1447 1446 1447 1448 1447 1445 1444 1443 1442 1440 1438 1436 1436 1434 1433 1431 1429 1427 1425 1422 1420 1418 1417 1415 1414 1413 1412 1411 1410 1410 1410 1409 1409 1409 1408 1408 1407 1406
1467 1468 1469 1464 1462 1456 1449 1447 1445 1447 1447 1444 1443 1442 1441 1440 1440 1437 1435 1433 1431 1429 1427 1424 1422 1420 1418 1416 1414 1413 1412 1411 1410 1409 1409 1408 1408 1407 1407 1406 1406 1405 1404 1404
1467 1467 1467 1464 1461 1453 1449 1446 1445 1451 1449 1445 1443 1442 1441 1440 1441 1438 1434 1432 1430 1427 1425 1423 1421 1418 1416 1415 1413 1412 1411 1410 1409 1408 1407 1406 1406 1406 1405 1405 1404 1403 1402 1402
1461 1462 1462 1461 1460 1456 1448 1446 1449 1449 1446 1444 1442 1441 1440 1439 1437 1435 1433 1430 1428 1426 1424 1422 1419 1417 1416 1414 1412 1410 1409 1408 1407 1406 1405 1405 1404 1404 1404 1403 1402 1402 1401 1400
1455 1455 1454 1454 1453 1448 1447 1446 1447 1446 1445 1443 1442 1440 1439 1437 1435 1433 1431 1428 1426 1424 1422 1420 1418 1416 1415 1413 1412 1409 1408 1407 1406 1405 1404 1403 1403 1402 1402 1401 1401 1400 1399 1398
1452 1450 1451 1451 1447 1446 1445 1445 1445 1444 1443 1442 1440 1438 1437 1435 1433 1431 1429 1427 1425 1423 1421 1419 1417 1415 1413 1412 1410 1409 1407 1405 1404 1403 1402 1401 1401 1400 1400 1399 1399 1398 1398 1397
1449 1450 1450 1449 1446 1444 1443 1443 1442 1441 1440 1439 1438 1436 1435 1433 1431 1429 1427 1425 1423 1421 1419 1418 1416 1414 1412 1411 1409 1408 1406 1404 1402 1401 1400 1399 1398 1398 1397 1397 1396 1396 1396 1396
1446 1448 1449 1446 1444 1444 1442 1441 1440 1439 1438 1437 1435 1433 1432 1431 1429 1428 1426 1424 1422 1420 1419 1417 1415 1413 1411 1409 1407 1406 1404 1403 1401 1399 1398 1397 1396 1396 1395 1394 1394 1394 1394 1394